Location: Dillon
(41.1766°N, 107.0923°W)
Time: 07:12:50
(UTC+00:00)

SPROUT - Visible Passes

Search period start: 28 June 2022 00:00
Search period end: 08 July 2022 00:00
Orbit: 588 x 601 km, 97.9° (Epoch: 27 June)

Date Brightness Start Highest point End Pass type
(mag) Time Alt. Az. Time Alt. Az. Time Alt. Az.
28 Jun ? 07:54:16 73° NE 07:54:16 73° NE 07:58:11 10° N visible
29 Jun ? 08:03:51 73° NW 08:03:51 73° NW 08:07:39 10° NNW visible
30 Jun ? 06:36:47 11° ENE 06:37:54 12° ENE 06:39:20 10° NE visible
30 Jun ? 08:13:25 58° WNW 08:13:25 58° WNW 08:17:05 10° NNW visible
01 Jul ? 06:46:21 14° ENE 06:47:13 14° ENE 06:49:30 10° NNE visible
01 Jul ? 08:22:59 45° WNW 08:22:59 45° WNW 08:26:27 10° NNW visible
02 Jul ? 06:55:54 17° ENE 06:56:33 18° ENE 06:59:23 10° NNE visible
02 Jul ? 08:32:33 35° WNW 08:32:33 35° WNW 08:35:46 10° NNW visible
03 Jul ? 07:05:27 22° ENE 07:05:54 22° ENE 07:09:08 10° NNE visible
03 Jul ? 08:42:06 28° WNW 08:42:06 28° WNW 08:45:01 10° NW visible
04 Jul ? 07:15:00 27° ENE 07:15:14 27° ENE 07:18:47 10° N visible
04 Jul ? 08:51:38 22° WNW 08:51:38 22° WNW 08:54:11 10° NW visible
05 Jul ? 07:24:32 34° ENE 07:24:35 34° ENE 07:28:22 10° N visible
05 Jul ? 09:01:10 18° WNW 09:01:10 18° WNW 09:03:15 10° NW visible
06 Jul ? 07:34:04 43° ENE 07:34:04 43° ENE 07:37:54 10° N visible
06 Jul ? 09:10:42 14° WNW 09:10:42 14° WNW 09:12:10 10° NW visible
07 Jul ? 07:43:35 54° NE 07:43:35 54° NE 07:47:22 10° N visible
07 Jul ? 09:20:13 11° WNW 09:20:13 11° WNW 09:20:44 10° WNW visible
